STARLINK-1976 (47574 NORAD) Tracking and Keplerian Element Data

This shows tracking and keplerian element data for the satellite.

Feedback or suggestion? Click here.




ElementValue
Catalog47574
NameSTARLINK-1976
Epoch Orbit1155
Epoch Day106.25002315
Epoch Year2021
RAAN150.2444
Inclination53.0491
Eccentricity0.0001145
Argument of Perigee70.96
Mean Anonmoly124.8569
Mean Motion15.06413107
Decay Rate-0.00028439
L11 47574U 21009AC 21106.25002315 -.00028439 00000-0 -18973-2 0 9995
L22 47574 53.0491 150.2444 0001145 70.9600 124.8569 15.06413107 11559

Live tracking and technical data element details for STARLINK-1976 (NORAD 47574). STARLINK-1976 can be tracked NOW for your location showing map with azimuth and elevation plus other details from your city location.

Track the satellite on the map from your city or location and see movement details for azimuth, elevation, latitude, longitude, range, height, and movement on the map or in text.







IsCatalogInMostPopularTable: catalog: 47574, numindb: 18
Update: records affected: 1



GetName: 47574 STARLINK-1976

Hit Count: updated at: Fri, 16 Apr 2021 11:42:41 GMT